Find INTELSAT 602

NORAD ID: 20315 Int'l Des: 1989-087 Owner: INTEL Country: I-INT operational
HEOCIRCULAR

Live-Position

3D-Globus wird geladen...

Über INTELSAT 602

Beschreibung wird geladen...

Nächste Überflüge

Passes for default location (London). Set your location on the main map for personalized predictions.

Höhenverlauf

Loading altitude history...

Zweizeiliger Elementsatz

1 20315U 89087A 26106.87214531 -.00000089 00000-0 00000-0 0 9997
2 20315 14.2880 7.9966 0004966 237.4509 292.6152 0.99008068130717
Epoch: 16. Apr. 2026 • Age: 22 hours

Aktueller Status

Höhe 36145.9 km
Geschwindigkeit 3.06 km/s
Subsatellitenpunkt 9.05°N, 15.69°E
Startdatum 27. Okt. 1989
Alter 36.4 years
Typ communications

Technische Details

Klassifizierung Payload
Masse 4286.00 kg
Trockenmasse 1906.00 kg
Gesamtmasse 4286.00 kg
Länge 11.80 m
Durchmesser 3.60 m
Spannweite 11.80 m
Form Cyl
Hersteller HSES
Bus-Typ HS-389
Phasenstatus Renamed
Besitzer/Staat INTEL/I-INT

Most Searched